{"data":{"norad_id":60152,"intl_designator":"2024-120T","name":"STARLINK-32147","alt_names":[],"object_type":"PAYLOAD","status":"ACTIVE","operator":null,"country":"US","launch_date":"2024-06-27","launch_site_code":"AFETR","launch_vehicle":null,"mission":null,"orbit_class":"UNKNOWN","rcs_meters":null,"size_class":null,"mass_kg":null,"dimensions":null,"purposes":["comms"],"wikipedia_slug":null,"has_3d_model":false,"image_url":null,"decayed_at":null,"tle_current":{"epoch":"2026-09-21T21:34:00.475968Z","epoch_age_seconds":60422,"freshness":"FRESH","line1":"1 60152U 24120T   26264.89861662 -.00000243  00000+0  39383-5 0  9999","line2":"2 60152  53.1593 125.2231 0001238  85.7635 274.3509 15.34393788126466","mean_motion":15.34393788,"eccentricity":0.0001238,"inclination_deg":53.1593,"raan_deg":125.2231,"arg_perigee_deg":85.7635,"mean_anomaly_deg":274.3509,"bstar":3.9383e-6,"rev_number":12646,"period_min":93.848138024396,"perigee_km":461.874805335,"apogee_km":463.56860195003,"semimajor_km":6840.8587036425,"source":"CELESTRAK","updated_at":"2026-09-22T09:00:49.180211Z"}}}